Regional Weather Roundup
Issued by NWS

Home | Current Version | Previous Version | Text Only | Print | Product List | Glossary Off
Versions: 1 2 3 4 5 6 7 8 9 10 11 12 13 14 15 16 17 18 19 20 21 22 23 24 25 26 27 28 29 30 31 32 33 34 35 36 37 38 39 40 41 42 43 44 45 46 47 48 49 50

000
ASUS43 KOAX 280102
RWRNE

WEATHER ROUNDUP FOR NEBRASKA
NATIONAL WEATHER SERVICE OMAHA NE
700 PM CST TUE JAN 27 2015

NOTES: SATELLITE DATA IS BEING USED TO AUGMENT CLOUD COVER ABOVE
       12000 FEET.
       "FAIR" INDICATES FEW OR NO CLOUDS BELOW 12,000 FEET WITH NO
       SIGNIFICANT WEATHER AND/OR OBSTRUCTIONS TO VISIBILITY.

  * THESE STATIONS DO NOT REPORT WEATHER SUCH AS RAIN...SNOW OR FOG.

NEZ001>004-019>022-054>056-280200-
NEBRASKA PANHANDLE

CITY           SKY/WX    TMP DP  RH WIND       PRES   REMARKS
SCOTTSBLUFF      N/A    N/A N/A N/A MISG      29.96R
ALLIANCE       CLOUDY    44  28  53 S6        29.93F
CHADRON        CLOUDY    46  34  62 SW6       29.90F
SIDNEY         MOCLDY    41  31  67 SW9       29.98S
$$

NEZ057>060-069>072-079>082-280200-
SOUTHWEST NEBRASKA

CITY           SKY/WX    TMP DP  RH WIND       PRES   REMARKS
NORTH PLATTE   PTCLDY    44  26  49 E3        29.93R
IMPERIAL       MOCLDY    54  27  35 NE3       29.94F
LEXINGTON      CLEAR     54  33  45 SE6       29.92S
MCCOOK         PTCLDY    58  30  34 S5        29.92F
$$

NEZ005>010-023>029-035>040-094-280200-
NORTH CENTRAL NEBRASKA

CITY           SKY/WX    TMP DP  RH WIND       PRES   REMARKS
VALENTINE      CLEAR     43  31  62 SW3       29.88S
BROKEN BOW     CLEAR     39  29  67 CALM      29.91S
ORD            CLEAR     45  32  60 E3        29.91S
$$

NEZ041-046>049-061>064-073>077-083>087-280200-
SOUTH CENTRAL NEBRASKA

CITY           SKY/WX    TMP DP  RH WIND       PRES   REMARKS
GRAND ISLAND   CLEAR     51  33  50 SE9       29.95S
AURORA         CLEAR     41  29  63 SE8       29.96R
HASTINGS       CLEAR     54  32  43 SE12      29.94S
KEARNEY *      CLEAR     52  30  43 S6        29.94R
YORK           CLEAR     48  32  53 SE10      29.97S
$$

NEZ011>018-030>034-042>045-280200-
NORTHEAST NEBRASKA

CITY           SKY/WX    TMP DP  RH WIND       PRES   REMARKS
NORFOLK        CLEAR     42  32  67 SE9       29.97S
ALBION         CLEAR     42  32  67 CALM      29.96S
BLAIR          CLEAR     46  31  57 SE10      30.03S
COLUMBUS *     CLEAR     45  30  57 E8        29.99S
FREMONT        CLEAR     45  32  60 SE8       30.02S
TEKAMAH        CLEAR     39  30  70 SE9       30.04R WCI  33
$$

NEZ050>053-065>068-078-088>093-280200-
SOUTHEAST NEBRASKA

CITY           SKY/WX    TMP DP  RH WIND       PRES   REMARKS
LINCOLN        CLEAR     48  32  53 SE12      30.02S
OMAHA EPPLEY   CLEAR     43  31  62 SE12      30.05R
FALLS CITY     CLEAR     41  29  62 E8        30.06R
$$

NEZ044-045-051>053-067-280200-
OMAHA AREA

CITY           SKY/WX    TMP DP  RH WIND       PRES   REMARKS
OMAHA EPPLEY   CLEAR     43  31  62 SE12      30.05R
BLAIR          CLEAR     46  31  57 SE10      30.03S
FREMONT        CLEAR     45  32  60 SE8       30.02S
OFFUTT AFB     CLEAR     38  28  67 E8        30.05R WCI  33
$$



USA.gov is the U.S. government's official web portal to all federal, state and local government web resources and services.